Regional Weather Roundup
Issued by NWS Sterling, VA

Home | Current Version | Previous Version | Graphics & Text | Print | Product List | Glossary On
Versions: 1 2 3 4 5 6 7 8 9 10 11 12 13 14 15 16 17 18 19 20 21 22 23 24 25 26 27 28 29 30 31 32 33 34 35 36 37 38 39 40 41 42 43 44 45 46 47 48 49 50
000
ASUS41 KLWX 280110
RWRLWX

REGIONAL WEATHER ROUNDUP
NATIONAL WEATHER SERVICE BALTIMORE MD/WASHINGTON DC
900 PM EDT MON APR 27 2015

Note: "FAIR" indicates few or no clouds below 12,000 feet
with no significant weather and/or obstructions to visibility.
 TC=TEMPERATURE CELSIUS

 * =Non NWS site. Station does not report precipitation (e.g. rain,
    snow, etc.), thunder, or fog.

DCZ001-MDZ009-015-VAZ040>042-051-053>054-280200-
WASHINGTON METRO

CITY           SKY/WX    TMP DP  RH WIND       PRES   REMARKS
WASHINGTON NAT CLOUDY    55  38  52 N12       29.86R
DULLES         MOCLDY    51  36  56 NW9       29.87R
ANDREWS AFB    CLOUDY    53  36  52 NW14      29.84R
FT BELVOIR     CLOUDY    55  36  49 NW8       29.87R
QUANTICO       MOCLDY    55  33  43 NW17G29   29.88R
COLLEGE PARK*  MOCLDY    54  36  50 NW8       29.85R
LEESBURG*      LGT RAIN  52  41  66 N9        29.89R
MANASSAS*      PTCLDY    52  37  58 NW13      29.88R
GAITHERSBURG*  PTCLDY    48  36  61 NW10      29.90R

$$

MDZ006>007-011-014-280200-
BALTIMORE METRO

CITY           SKY/WX    TMP DP  RH WIND       PRES   REMARKS
BWI AIRPORT    MOCLDY    52  35  52 NW12      29.83R
MD SCIENCE CTR   N/A     54  36  50 MISG      29.84R
MARTIN STATE   CLEAR     54  37  54 W15       29.84R
ANNAPOLIS      PTCLDY    55  36  48 NW14G21   29.83R
FORT MEADE*    PTCLDY    52  34  50 NW8       29.86R

$$

MDZ012-015-019>023-280200-
MARYLAND EASTERN SHORE

CITY           SKY/WX    TMP DP  RH WIND       PRES   REMARKS
OCEAN CITY     CLOUDY    53  35  50 NW6       29.79R
SALISBURY      MOCLDY    53  34  48 W6        29.80R
CAMBRIDGE*     PTCLDY    55  34  44 NW12G21   29.81R
EASTON*        PTCLDY    54  37  54 NW8       29.85R

$$

MDZ017>025-280200-
SOUTHERN MARYLAND

CITY           SKY/WX    TMP DP  RH WIND       PRES   REMARKS
PATUXENT RIVER MOCLDY    55  35  47 NW10      29.83R
ST INIGOES     MOCLDY    55  34  45 NW7       29.83R
LEONARDTOWN*   CLOUDY    54  32  43 W5        29.85R

$$

MDZ003>005-280200-
NORTH CENTRAL MARYLAND

CITY           SKY/WX    TMP DP  RH WIND       PRES   REMARKS
FREDERICK*     CLOUDY    52  34  50 NW8       29.89
HAGERSTOWN APT PTCLDY    47  38  71 NW8       29.88R
WESTMINSTER*   PTCLDY    48  37  66 NW7       29.85R

$$

MDZ501>502-280200-
WESTERN MARYLAND

CITY           SKY/WX    TMP DP  RH WIND       PRES   REMARKS
OAKLAND*       CLOUDY    34 N/A N/A NW8       29.91R WCI  27
CUMBERLAND*    PTCLDY    46  34  61 N12G18    29.98R

$$

VAZ025>031-280200-
SHENANDOAH VALLEY

CITY           SKY/WX    TMP DP  RH WIND       PRES   REMARKS
WINCHESTER*    MOCLDY    50  30  46 NW13G23   29.90R
FRONT ROYAL*   CLOUDY    48  36  61 NW7       29.90R
LURAY*         MOCLDY    52  36  54 NW15G22   29.92R
NEW MARKET*    MOCLDY    48  34  57 NW3       29.91R
STAUNTON*      CLOUDY    51  32  48 NW7       29.92R
WAYNESBORO*    CLOUDY    49  31  48 NW12G18   29.90R

$$

WVZ021-048>050-054>055-280200-
EASTERN WEST VIRGINIA PANHANDLE

CITY           SKY/WX    TMP DP  RH WIND       PRES   REMARKS
MARTINSBURG    PTCLDY    50  35  56 NW12      29.90R
PETERSBURG*    MOCLDY    47  31  53 NW6       29.95R

$$

VAZ036>039-050-280200-
CENTRAL FOOTHILLS

CITY           SKY/WX    TMP DP  RH WIND       PRES   REMARKS
CHARLOTTESVILL MOCLDY    53  32  44 NW9       29.89R
CULPEPER*      MOCLDY    55  36  47 NW13      29.89R
ORANGE*        PTCLDY    54  32  43 W13G21    29.90R
GORDONSVILLE*  CLOUDY    54  32  44 CALM      29.88R
WARRENTON*     FAIR      52  38  59 NW12G20   29.88R

$$

VAZ055>057-280200-
NORTH AND CENTRAL PIEDMONT

CITY           SKY/WX    TMP DP  RH WIND       PRES   REMARKS
FREDERICKSBRG* CLOUDY    57  35  43 NW10G16   29.86R
STAFFORD*      CLOUDY    53  32  44 NW13G20   29.91R

$$

NCZ024-NYZ072-PAZ021-071-VAZ022-071-280200-
OTHER REGIONAL OBSERVATIONS

CITY           SKY/WX    TMP DP  RH WIND       PRES   REMARKS
NEW YORK CITY  CLOUDY    57  31  37 MISG      29.73R
PHILADELPHIA   MOCLDY    57  30  35 NW14      29.77R
PITTSBURGH     CLOUDY    43  33  68 NW9       29.99R
ROANOKE        PTCLDY    51  31  46 NW8       29.93R
RICHMOND       MOCLDY    56  33  42 NW6       29.86R
RALEIGH        PTCLDY    58  31  35 VRB5      29.90R

$$

ANZ530>537-280200-
MARINE OBSERVATIONS

STATION/POSITION TIME  TEMP    WIND        PRES
                       AIR SEA DIR/SP/G
                 (UTC) (F)     (DEG/KT/KT) (MB)
THOMAS PT LIGHT  0100   55 54  320/ 12/ 15 1010.6R
BALT KEY BRIDGE  0000   56     290/ 18/ 22 1009.1R
COVE POINT       0000   56     330/ 10/ 13 1010.0R
LEWISETTA        0000   57 58              1009.6R
SOLOMONS ISLAND  0018      56                N/A
PINEY POINT      0000          340/ 17/ 19   N/A

$$




USA.gov is the U.S. government's official web portal to all federal, state and local government web resources and services.